N4MRV-1 Weather Reports


time (UTC)temp
C
wind
direction
speed
KPH
gust
KPH
rain 1hr
cm
rain 24hr
cm
rain mn
cm
humidity
%
barometer
mb
20260503184517 15 0 3.2 9.7 0.00 0.00 0.00 34 1017.1
20260503183037 15 0 3.2 12.9 0.00 0.00 0.00 34 1017.3
20260503181517 14 293 4.8 12.9 0.00 0.00 0.00 34 1017.4
20260503180017 14 23 3.2 9.7 0.00 0.00 0.00 34 1017.4
20260503174517 14 315 3.2 11.3 0.00 0.00 0.00 34 1017.5
20260503173016 13 248 3.2 14.5 0.00 0.00 0.00 37 1017.7
20260503171517 13 248 3.2 12.9 0.00 0.00 0.00 37 1017.9
20260503081516 8 0.0 4.8 0.00 0.00 0.00 59 1015.5
20260503071516 9 0.0 6.4 0.00 0.00 0.00 57 1014.9
20260503054515 10 0.0 4.8 0.00 0.00 0.00 62 1014.1
20260503053035 10 0.0 0.0 0.00 0.00 0.00 68 1014.2
20260503051515 10 0.0 0.0 0.00 0.00 0.00 66 1014.1
20260503050015 10 0.0 0.0 0.00 0.00 0.00 67 1014.1
20260503044515 10 0.0 0.0 0.00 0.00 0.00 67 1014.0
20260503043057 10 0.0 0.0 0.00 0.00 0.00 66 1013.9
20260503041517 10 0.0 3.2 0.00 0.00 0.00 71 1013.9
20260503040017 10 0.0 3.2 0.00 0.00 0.00 71 1013.8
20260503034516 10 0.0 0.0 0.00 0.00 0.00 73 1013.9
20260503033016 10 0.0 0.0 0.00 0.00 0.00 73 1013.8
20260503031516 10 0.0 0.0 0.00 0.00 0.00 72 1013.7
20260503030016 10 0.0 0.0 0.00 0.00 0.00 72 1013.8
20260503024515 10 0.0 0.0 0.00 0.00 0.00 72 1013.8
20260503023015 10 0.0 0.0 0.00 0.00 0.00 71 1013.7
20260503021516 11 0.0 0.0 0.00 0.00 0.00 71 1013.7
20260503020016 11 0.0 0.0 0.00 0.00 0.00 69 1013.5
20260503014515 11 0.0 0.0 0.00 0.00 0.00 68 1013.5
20260503013015 11 0.0 1.6 0.00 0.00 0.00 66 1013.4
20260503011536 11 0.0 3.2 0.00 0.00 0.00 66 1013.2
20260503010015 12 0.0 0.0 0.00 0.00 0.00 64 1013.1
20260503004515 12 0.0 0.0 0.00 0.00 0.00 61 1013.0
20260503003015 12 0.0 1.6 0.00 0.00 0.00 59 1012.8
20260503001515 13 0.0 0.0 0.00 0.00 0.00 56 1012.7
20260503000015 13 0.0 1.6 0.00 0.00 0.00 51 1012.4
20260502234515 13 0.0 3.2 0.00 0.00 0.00 51 1012.2
20260502233015 13 0.0 3.2 0.00 0.00 0.00 50 1012.0
20260502231515 14 0.0 1.6 0.00 0.00 0.00 51 1011.9
20260502230015 14 0.0 1.6 0.00 0.00 0.00 47 1011.7
20260502224515 15 0.0 3.2 0.00 0.00 0.00 48 1011.5
20260502223015 15 0 1.6 6.4 0.00 0.00 0.00 43 1011.6
20260502221517 15 315 1.6 4.8 0.00 0.00 0.00 43 1011.8
20260502220037 15 0 1.6 6.4 0.00 0.00 0.00 43 1011.9
20260502214517 15 0 1.6 8.0 0.00 0.00 0.00 43 1011.8
20260502213017 15 0 1.6 6.4 0.00 0.00 0.00 42 1011.8
20260502211517 15 0 1.6 4.8 0.00 0.00 0.00 43 1011.8
20260502210017 15 0 1.6 6.4 0.00 0.00 0.00 43 1011.7
20260502204537 15 0 1.6 4.8 0.00 0.00 0.00 43 1011.8
20260502203017 15 0 1.6 9.7 0.00 0.00 0.00 42 1011.9
20260502201517 16 0 1.6 4.8 0.00 0.00 0.00 43 1012.0
20260502200017 15 0 1.6 8.0 0.00 0.00 0.00 46 1011.9
20260502194517 15 0 3.2 12.9 0.00 0.00 0.00 43 1012.0
20260502193017 15 158 1.6 6.4 0.00 0.00 0.00 50 1012.2
20260502191516 15 338 1.6 6.4 0.00 0.00 0.00 43 1012.3
20260502190017 15 293 1.6 12.9 0.00 0.00 0.00 43 1012.6